Regional Weather Roundup
Issued by NWS

Home | Current Version | Previous Version | Text Only | Print | Product List | Glossary On
Versions: 1 2 3 4 5 6 7 8 9 10 11 12 13 14 15 16 17 18 19 20 21 22 23 24 25 26 27 28 29 30 31 32 33 34 35 36 37 38 39 40 41 42 43 44 45 46 47 48 49 50
000
ASUS44 KFWD 080801
RWRTX
NORTH TEXAS HOURLY WEATHER ROUNDUP
NATIONAL WEATHER SERVICE FORT WORTH TX
200 AM CST MON FEB 08 2016

NOTE: "FAIR" INDICATES FEW OR NO CLOUDS BELOW 12,000 FEET WITH NO
SIGNIFICANT WEATHER AND/OR OBSTRUCTIONS TO VISIBILITY.

TXZ118-119-080900-
DALLAS/FORT WORTH METROPLEX

CITY           SKY/WX    TMP DP  RH WIND       PRES   REMARKS
DFW AIRPORT    PTCLDY    47  22  37 N15       30.28S
DALLAS LOVE    PTCLDY    48  24  39 N14G23    30.28S
FTW MEACHAM    PTCLDY    47  23  38 NW12      30.30R
DAL-EXECUTIVE  PTCLDY    49  19  30 N21G28    30.27S
FTW-ALLIANCE   PTCLDY    44  23  43 NW10      30.30R WCI  39
FTW-NAS-JRB    CLEAR     48  25  40 NW14      30.31R
ARLINGTON      CLEAR     50  21  32 NW16      30.29R
GRAND PRAIRIE  CLEAR     49  21  32 NW9G23    30.30S
MESQUITE       CLEAR     48  20  33 NW20      30.27S
LANCASTER      CLEAR     48  23  37 NW15G22   30.28S
$$

TXZ091>094-102>105-117-120-121-131>134-080900-
NORTH CENTRAL TEXAS

CITY           SKY/WX    TMP DP  RH WIND       PRES   REMARKS
GAINESVILLE    CLEAR     40  22  48 NW10      30.31S WCI  34
BRIDGEPORT     CLEAR     46  24  43 NW10      30.34S
DENTON         CLEAR     43  23  45 NW12      30.30R WCI  37
MCKINNEY       CLEAR     46  21  37 NW15      30.27S WCI  40
ROCKWALL       PTCLDY    47  24  39 N14G23    30.26R
TERRELL        CLEAR     49  24  37 NW15G24   30.26R
WAXAHACHIE     CLEAR     47  26  43 N18G25    30.28F
$$

TXZ083>090-098>101-113>116-127>130-139>142-154-155-080900-
WESTERN NORTH TEXAS

CITY           SKY/WX    TMP DP  RH WIND       PRES   REMARKS
WICHITA FALLS  MOCLDY    41  17  38 NW15      30.34S WCI  33
VERNON         PTCLDY    39  12  32 NW15      30.38F WCI  31
ABILENE        CLEAR     38  22  52 N7        30.37R WCI  33
MINERAL WELLS  CLEAR     44  22  41 N12       30.31S WCI  38
STEPHENVILLE   CLEAR     46  24  41 N14G21    30.33S WCI  40
COMANCHE       CLEAR     45  28  51 N12       30.31S WCI  39
BROWNWOOD      CLEAR     46  23  39 N13G20    30.32R
$$

TXZ143>147-156>162-174-175-080900-
CENTRAL TEXAS

CITY           SKY/WX    TMP DP  RH WIND       PRES   REMARKS
WACO           CLEAR     45  30  55 NW9       30.27R
WACO-MCGREGOR  CLEAR     47  31  53 N10       30.27
CORSICANA      PTCLDY    49  31  49 N16       30.25R
MEXIA          CLEAR     46  32  59 N10       30.23R
HEARNE         CLEAR     36  32  87 NW8       30.25R WCI  29
TEMPLE         CLEAR     45  32  60 N9        30.26R
KILLEEN        NOT AVBL
KILLEEN-SKYLRK CLEAR     48  30  49 N13G20    30.26R
HAMILTON       CLEAR     47  27  44 N15G22    30.29R
$$

TXZ095>097-106>112-122>126-135>138-148>153-164>167-080900-
EAST TEXAS

CITY           SKY/WX    TMP DP  RH WIND       PRES   REMARKS
PARIS          CLOUDY    46  19  34 NW18      30.21S WCI  39
TYLER          PTCLDY    50  26  39 N13       30.21R
LONGVIEW       PTCLDY    46  32  58 NW12      30.17R
PALESTINE      CLEAR     47  36  64 NW6       30.23R
JACKSONVILLE   CLEAR     51  30  43 NW7       30.20R
NACOGDOCHES    CLEAR     34  30  86 CALM      30.18R
LUFKIN         CLEAR     41  38  89 W3        30.18S
$$

SUPPLEMENTAL OBSERVATIONS (CENTRAL)

CITY           SKY/WX    TMP DP  RH WIND       PRES   REMARKS
$$

SUPPLEMENTAL OBSERVATIONS (WEST)

CITY           SKY/WX    TMP DP  RH WIND       PRES   REMARKS
$$

SUPPLEMENTAL OBSERVATIONS (EAST)

CITY           SKY/WX    TMP DP  RH WIND       PRES   REMARKS
$$

SUPPLEMENTAL OBSERVATIONS ARE A COLLECTION OF AUTOMATED INSTRUMENTS
THAT ARE MAINTAINED BY A VARIETY OF FEDERAL AND STATE AGENCIES.
CERTAIN ELEMENTS...SUCH AS HUMIDITY VALUES AND SUSTAINED WIND
SPEEDS...MAY BE APPROXIMATED.




USA.gov is the U.S. government's official web portal to all federal, state and local government web resources and services.